37P/Forbes 

Epoch 2005 Aug. 18.0 TT = JDT 2453600.5  

T 2005 Aug. 1.75121 TT                                  Nakano

q   1.5723938            (2000.0)            P               Q

n   0.15526498     Peri.  329.25782     +0.25236645     +0.96136867

a   3.4283648      Node   315.09931     -0.85311393     +0.16745468

e   0.5413575      Incl.    8.95823     -0.45662654     +0.21847018

P   6.35

From 377 observations 1980-2005, mean residual 0".79.

   Nongravitational parameters A1 = +0.48 +/- 0.01, A2 = -0.0375 +/- 0.0002.

Residuals in seconds of arc 

1980/                     990710 900  0.3+  0.1+    991029 402  0.6+  0.1+  

800312 809  0.2-  0.6-    990724 900  1.1-  0.2-    991104 897 (1.5+  2.4+) 

800313 801  0.5+  0.3+    990724 900  0.8-  0.4-    991107 504  0.2+  0.2-  

800313 801  2.4-  0.5-    990724 897  0.9-  0.5-    991107 504  0.1-  0.4-  

800314 809  0.8-  0.6-    990724 897  0.9-  0.8-    991108 360  0.9+  0.7+  

800414 805  0.1+  0.1-    990725 118 (2.3-  0.8-)   991108 360  1.0+  0.8+  

800415 805  0.1+  0.3-    990725 118 (2.6-  0.7-)   991112 695  0.8+  0.0   

800416 805  0.2+  1.2-    990729 349  0.8-  0.6-    991112 695  0.7+  0.6+  

800418 381  0.5+  0.4-    990729 349  0.9-  0.6+    991112 695  0.6+  0.7+  

800418 381  1.2+  0.3-    990729 349  0.3-  1.2+    991113 587  0.6+  0.5+  

800517 801  0.9-  2.2-    990730 118  0.4-  0.5+    991113 587 (2.6+  2.1+) 

800606 381  0.0   1.6-    990730 118  0.1-  0.8+    991128 897  1.5+  1.2+  

800613 801  1.6-  1.2-    990730 349  0.0   0.4+    991130 360  0.8+  1.1+  

800706 474 (3.5-  0.8-)   990808 844 (0.3-  2.1+)   991130 360  0.9+  1.0+  

800706 474  1.4-  1.1-    990808 844 (0.6+  2.5+)   2005/                   

800903 323  2.3+  2.1-    990808 844 (0.1+  2.8+)   050105 A61(17.4+  0.4+) 

800917 323 (5.2+  2.5-)   990811 355  1.0-  0.3-    050105 A61(19.0+  2.3-) 

1986/                     990811 355  0.7-  1.0-    050105 A61(15.7+  6.2-) 

860408 675  0.9-  0.2-    990811 355  1.0-  0.7-    050109 D74 (3.1+  0.9+) 

860408 675  2.1-  0.7+    990817 071  1.3-  0.4+    050109 D74  1.5+  0.8+  

860509 675  1.3-  0.2-    990817 071  1.1-  0.5+    050109 D74  1.7+  0.2-  

860509 675  1.4-  0.2-    990817 071  1.1-  0.2+    050117 D74 (2.6-  1.1-) 

860609 675  2.2-  0.6+    990817 071  1.3-  0.1-    050117 D74  0.6+  1.6-  

860609 675  2.3-  0.8+    990817 071  0.9-  0.2+    050117 D74  0.9+  0.7-  

860610 675  2.1-  0.3+    990818 349  0.7+  0.2+    050215 A61  0.6-  1.4-  

860610 675  2.3-  0.4+    990818 349  0.1-  0.6-    050215 A61  1.0-  0.3+  

860612 707 (2.6-  0.0 )   990818 349  0.6+  0.4-    050215 A61  0.4+  0.6-  

1987/                     990819 071  0.9-  0.4-    050217 A61  0.8-  0.1-  

870901 691  0.3+  0.9+    990819 071  0.7-  0.3-    050217 A61  1.4-  0.9-  

870901 691  0.2+  0.8+    990819 071  1.1-  0.3-    050217 A61 (1.3-  2.7+) 

870901 691  0.2+  0.8+    990819 071  0.3-  0.4-    050217 I77  1.9-  0.2+  

870901 691  0.5+  0.6+    990819 071  0.3-  0.3-    050217 I77  1.3-  0.2-  

870901 691  0.0   0.8+    990819 071  1.3-  0.6+    050217 I77  1.4-  0.2-  

870919 691  0.5-  0.3+    990819 071  1.6-  0.4+    050305 349  1.0-  1.0+  

870920 691  1.5-  0.6+    990820 071 (4.8-  2.2-)   050305 349  0.9-  0.4+  

870920 691  0.5-  0.1-    990821 071 (3.8-  1.2-)   050306 E12 (2.8-  0.6+) 

871016 691  1.1-  0.9+    990822 352  1.1-  0.6-    050306 E12 (3.7-  0.3+) 

871016 691  0.7-  1.0+    990822 352  0.9-  1.2-    050306 E12 (2.7-  0.6+) 

871016 691  1.0-  0.9+    990822 352  0.9-  0.4-    050306 E12 (2.3-  0.6+) 

1993/                     990822 402  0.2+  0.2-    050306 349  1.3-  1.2+  

930321 323 (5.1+  2.3+)   990822 402  0.1+  0.5-    050306 349  1.6-  1.3+  

930321 323  0.3-  0.6-    990822 402  0.4+  0.4-    050306 349  1.7-  1.3+  

930321 323 (4.2-  1.1-)   990822 113 (2.5-  0.1-)   050330 415  0.1+  0.7-  

930327 323  0.3+  1.1-    990822 113  1.5-  0.0     050330 415  0.4+  0.2+  

930327 323 (4.9-  1.5-)   990823 844  1.2+  0.5+    050401 415  0.4-  0.6-  

930328 323  1.2-  1.2-    990823 844  1.3+  0.3+    050401 415  0.8+  0.6-  

930416 323  0.2+  0.6+    990823 844  0.1+  0.7-    050401 415  0.0   0.7-  

930419 323  0.9+  1.2+    990824 351 (0.1+  3.3+)   050404 844  1.2-  0.1+  

930510 413  1.2-  0.7-    990824 351 (0.6-  3.1-)   050404 844 (3.3-  0.3+) 

930510 413  1.2-  0.8-    990824 351  1.7+  0.6-    050404 844  1.2-  0.3-  

930511 413  1.4-  0.8-    990824 351  0.0   1.7+    050404 844 (3.8-  0.7+) 

930511 413  1.4-  0.6-    990903 118  0.4+  0.6-    050404 844  0.7-  0.2-  

930515 411  1.0-  1.8-    990903 118  0.6+  0.5-    050404 360  0.3-  0.7+  

930515 411  0.7-  1.5-    990904 351  0.7-  1.5+    050404 360  0.0   0.4+  

930527 361 (6.2-  5.4-)   990904 351  1.4+  0.6+    050409 844  1.3-  0.1-  

930527 361 (4.9-  3.4-)   990904 351 (3.6+  1.8+)   050409 844 (3.1-  1.0+) 

930701 413  0.2-  0.6-    990904 349  1.0-  1.3+    050409 415  0.5+  0.1+  

930701 413  0.7-  0.2+    990904 897  0.1-  0.0     050409 415  0.0   0.0   

930721 691  1.2-  0.6-    990904 897  0.3-  0.3-    050409 423  1.0-  0.2+  

930722 360  0.9-  0.8+    990905 349  0.0   0.6-    050409 423  0.4-  0.5+  

930722 360  1.2-  0.3-    990906 071  0.7-  0.2+    050409 423  0.2-  0.0   

930723 691  0.9-  0.2-    990906 071  1.1-  0.6+    050409 D83  0.4-  0.0   

930731 413  1.2-  0.8+    990906 071  1.4-  0.1+    050409 D83  1.3-  0.5+  

930731 413  1.1-  0.7+    990906 071  1.1-  0.2+    050409 D83  1.8-  0.3-  

930811 411  1.1-  1.7-    990907 706  1.2-  0.7-    050409 D83  0.3+  0.6+  

930811 411  1.0-  0.7-    990907 706  0.5-  1.5-    050410 415  0.0   0.2-  

930813 691  0.6-  0.6-    990907 704  1.2+  0.0     050410 415  0.5+  0.3-  

930814 557 (3.1-  1.9-)   990907 704  0.7-  0.7+    050410 415  0.4+  0.1+  

930814 557  1.5-  0.2-    990907 143  0.9-  0.6-    050410 423  0.0   0.2+  

930824 360  0.7-  0.6-    990907 143  1.2-  0.5-    050410 423  0.3-  0.4+  

930824 360  0.8-  1.2-    990908 699  1.0-  1.2+    050410 423  0.4-  0.8+  

930824 360  0.4+  0.3-    990908 704  1.0+  0.3-    050410 423  0.4-  0.1+  

930914 691(12.9-  9.4+)   990908 704  0.1-  0.3-    050410 423  0.4-  0.4+  

930914 411 (2.5-  0.6-)   990908 704  0.5-  1.5+    050413 423  0.0   0.6-  

930925 816  0.1-  1.6-    990908 699  0.9-  1.1+    050413 423  0.0   0.2-  

930925 816  0.4-  1.6-    990908 704  0.5-  1.2+    050413 372  0.0   0.4-  

930925 360  0.1-  0.8-    990908 699  0.3-  0.6+    050413 349  1.2+  0.0   

930925 360  0.3-  1.0-    990910 834  0.3-  0.8-    050413 349  0.6+  0.5+  

930926 411  0.3-  1.5-    990910 834  1.0-  0.3+    050416 844  0.7-  0.8+  

930926 411  0.3-  1.4-    990912 360  0.9+  0.2+    050416 844  0.8-  0.6+  

930926 411  0.4-  1.2-    990912 360  0.9+  0.2+    050416 844  0.9+  0.0   

931011 360  0.6+  0.4+    990915 046  0.5+  0.1+    050420 I77  0.8-  0.3+  

931011 360  0.5+  0.2+    990915 046  0.4+  0.2+    050420 I77  0.4-  0.2+  

931011 900 (3.1+  1.9-)   990915 046  0.6+  0.2+    050430 844  0.0   0.2+  

931011 900 (1.2-  2.3-)   990917 834 (2.8+  0.7+)   050430 844  0.4-  0.1+  

931014 675 (0.5-  2.1-)   990917 834  0.6+  0.6-    050430 844  1.2-  0.0   

931014 675 (0.1-  2.6-)   990918 750  0.1-  0.0     050430 423  0.2-  0.4-  

931015 675 (0.2+  2.1-)   990918 703  0.6+  0.3+    050430 423  0.1-  0.0   

931019 360  0.7+  0.1+    990918 750  0.5+  0.0     050430 423  0.0   0.3-  

931019 360  0.7+  0.1+    990918 703  0.2+  0.3+    050430 423  0.0   0.0   

931020 657  0.0   0.5-    990918 750  0.3+  0.3-    050502 415  0.4+  0.2-  

931020 657  0.7-  1.4-    990918 703  0.4-  0.3-    050502 415  0.6+  0.7-  

931020 657  0.0   1.6-    990918 703  0.2-  0.8-    050503 372  1.0-  0.2+  

931023 411  0.8+  0.8-    990919 903  1.5+  1.6+    050503 372  1.1-  1.4+  

931023 411  0.7+  1.4-    990919 903 (3.0+  0.2+)   050504 844  0.7-  0.1-  

931024 691  0.1-  0.2-    990919 903 (2.6+  0.8-)   050504 844  0.7-  0.2-  

931024 691  0.3-  0.2-    990923 118  0.2+  0.4+    050504 844  0.6-  0.3-  

931024 691  0.1+  0.1-    990923 118  0.2+  0.3+    050504 360  0.3+  0.3+  

931024 411  1.9-  0.3+    990929 703 (3.1-  1.6-)   050504 360  0.8+  0.1+  

931024 411  0.3-  1.5-    990929 703 (2.4-  2.4-)   050506 J76  0.3+  0.4+  

931114 411  0.4+  0.2-    990929 703 (2.4-  3.0-)   050506 J76  0.3+  0.4+  

931114 411  0.6+  0.5+    990929 703  0.2-  0.2-    050506 J76  0.0   0.4+  

931114 411  1.1-  0.6-    990929 867  0.6+  0.5+    050508 834  0.5+  0.0   

931118 360  1.4+  0.3+    990929 867  0.5+  0.8+    050508 834  0.4+  0.6-  

931118 360  1.3+  0.3+    990929 867  0.5+  0.6+    050509 415  0.6+  0.7-  

931210 691  1.0+  1.7+    991002 699  0.3+  1.2+    050509 415  0.7+  0.2-  

931210 691  1.3+  0.3+    991002 699  0.4+  1.1+    050510 D83  0.1+  1.5+  

931210 691  1.0+  0.4+    991002 699  0.0   0.6+    050510 D83  0.5+  1.0+  

931212 360 (2.2+  0.6+)   991003 360  0.9+  0.1+    050510 D83  0.8+  0.4+  

931212 360  1.9+  0.3+    991003 360  1.1+  0.1-    050510 D83  0.0   1.1+  

931215 360  1.7+  0.8+    991003 360  0.6+  0.3+    050512 I77  0.3+  0.3-  

931215 360  1.1+  0.5+    991004 834  1.3+  0.1+    050512 I77  0.2-  0.2+  

1994/                     991004 834  1.1+  0.4+    050512 I77  0.3+  0.2-  

940107 691  0.8+  0.1-    991004 704 (2.7+  0.4-)   050512 427  0.7-  0.2-  

940107 691  1.8+  0.3+    991004 704  0.8+  0.3-    050513 J76  0.4-  0.2+  

940109 360  1.5+  0.8+    991004 704  0.8+  0.6+    050514 J76  0.6+  0.3+  

940109 360  1.4+  1.3+    991004 704  0.9+  0.1-    050514 J76  0.4+  0.1+  

1999/                     991004 704  1.4+  0.3-    050514 415  0.5+  0.2-  

990414 693  1.6+  0.1-    991004 360  0.7+  0.1-    050514 415  0.6+  0.2-  

990416 897  0.3-  0.2+    991004 360  0.9+  0.2-    050515 213  0.4+  0.6+  

